Vertical_Velocity
-0 0 -1 -2 -1 -1 -1 -1 0 0 -1 -1 -1 -1 -1 -1 -1 -1 -1 0 0 0 0 -0 -1 -1 -1 -1 -1 -1 -2 -2 -2 -2 -1 -1 -1 -1 -1 -0 -0 -0 -0 -1 -1 -1 -1 -1 -1 -1 -1 -1 -1 -1 -1 -1 -0 -0 -0 -0 -0 -0 -0 -0 -0 -0 -1 -1 -1 -2 -2 -1 -1 -0 -0 -0 -0 -0 -0 1 1 2 3 4 5 5
-0 1 -1 -2 -2 -1 -2 -1 -0 0 0 -1 -1 -1 -1 -1 -1 -1 -1 -0 0 0 0 -0 -1 -2 -2 -2 -1 -1 -1 -2 -2 -2 -2 -1 -1 -1 -0 -0 0 0 0 -0 -0 -1 -1 -1 -1 -1 -1 -1 -1 -1 -1 -1 -1 -1 -1 -1 -1 -1 -1 -1 -0 -0 -0 -0 -1 -1 -2 -1 -1 -1 0 0 0 -0 -1 -1 -1 -1 -0 1 2 2
-0 1 -1 -2 -2 -1 -1 -1 -1 -0 -0 -0 -1 -1 -1 -0 -1 -1 -1 -0 -0 -0 0 -0 -1 -2 -2 -2 -2 -1 -1 -1 -2 -2 -2 -2 -1 -1 -0 0 0 0 0 0 -0 -0 -0 -1 -1 -1 -1 -1 -1 -1 -1 -1 -1 -1 -1 -1 -1 -1 -1 -1 -1 -0 -0 -0 -0 -0 -1 -1 -1 -1 -1 -0 0 0 0 -0 -1 -1 -1 -1 -0 1
-0 0 -1 -1 -1 -1 -1 -1 -1 -1 -1 -1 -1 -1 -1 -0 -0 -0 -0 0 0 -0 -0 0 -0 -1 -2 -2 -1 -1 -0 -0 -1 -1 -1 -1 -1 -1 -0 0 1 1 1 1 1 0 0 0 -0 -0 -0 -0 -0 -0 -0 -0 -0 -0 -0 -0 -0 -1 -1 -1 -1 -1 -0 -0 -0 -0 -0 -1 -1 -1 -1 -1 -1 -0 0 0 0 0 -0 -0 -0 -0
-1 -0 -1 -1 -1 -1 -1 -0 -0 -0 -1 -1 -1 -1 -1 -1 -0 -0 -0 -0 0 -0 -0 0 0 -0 -1 -1 -1 -1 0 1 1 1 0 -0 -0 0 1 1 1 1 1 1 1 1 1 1 1 0 0 0 0 0 0 -0 -0 -0 -0 -0 -0 -0 -0 -0 -1 -0 -0 -0 -0 -0 -0 -0 -1 -1 -1 -1 -1 -1 -0 0 1 1 1 1 1 0
-1 -1 -1 -1 -1 -1 -1 -1 -0 -0 -0 -1 -1 -1 -0 -1 -1 -0 -1 -1 -1 -1 -1 -0 -0 -0 -1 -2 -2 -1 -0 0 1 1 1 0 0 1 1 1 1 1 1 1 1 1 1 0 0 0 0 0 0 -0 -0 -0 -0 -0 -0 -0 -0 -0 -0 -0 -0 -0 -0 0 0 0 0 -0 -0 -0 -1 -1 -1 -1 -1 -0 0 1 1 1 1 1
-1 -1 -0 -0 -1 -1 -0 -0 -0 0 0 -1 -1 -1 -1 -1 -0 -0 -0 -1 -1 -1 -1 -1 -1 -1 -1 -2 -2 -2 -1 -1 -0 -0 -0 -0 -0 -0 -0 -0 -0 -0 -1 -1 -1 -1 -1 -1 -1 -1 -1 -1 -1 -0 -1 -1 -1 -1 -0 -0 -0 -0 -0 -0 -0 -0 0 0 0 0 0 1 0 0 -0 -0 -1 -1 -1 -0 -0 0 1 1 1 1
-0 -1 -0 0 -0 -1 -1 -1 -0 0 1 -0 -1 -2 -2 -2 -1 -1 -0 -1 -1 -1 -1 -1 -1 -1 -1 -2 -2 -2 -2 -1 -1 -1 -1 -2 -2 -2 -2 -2 -1 -2 -2 -2 -2 -2 -2 -2 -2 -1 -1 -1 -1 -1 -1 -1 -1 -1 -0 -0 -0 -0 -0 -0 -0 -0 -0 -0 -0 0 0 1 1 1 1 1 0 -0 -1 -1 -0 -0 0 1 1 1
1 0 -0 0 1 0 -1 -2 -1 0 1 0 -1 -1 -2 -2 -2 -2 -1 -1 -1 -2 -1 -0 -0 -0 -1 -1 -1 -1 -2 -1 -1 -2 -2 -2 -3 -3 -3 -3 -2 -2 -2 -2 -2 -2 -2 -2 -2 -2 -2 -1 -1 -1 -1 -1 -1 -1 -0 -0 -0 -0 -0 -1 -1 -1 -1 -1 -1 -1 -0 0 1 1 1 1 1 0 -0 -0 -1 -1 -0 -0 0 0
1 1 1 1 1 1 1 -1 -2 -1 1 0 -0 -1 -1 -1 -1 -2 -1 -2 -3 -3 -2 -1 0 0 -0 -1 -1 -1 -1 -1 -2 -1 -1 -1 -2 -2 -3 -3 -3 -3 -2 -2 -2 -2 -2 -2 -2 -2 -2 -1 -1 -1 -1 -1 -1 -1 -1 -0 -0 -0 -1 -1 -1 -1 -1 -1 -1 -1 -1 -1 -0 0 1 1 1 1 1 0 -0 -1 -1 -1 -1 -0
-0 0 1 1 1 1 1 0 -1 -1 -1 -0 -0 -0 -0 0 1 1 0 -2 -3 -4 -4 -3 -2 -1 -0 -0 -0 -0 -0 -1 -1 -2 -1 -1 -1 -1 -1 -2 -2 -2 -2 -2 -2 -2 -2 -2 -2 -2 -2 -1 -1 -1 -1 -1 -1 -1 -0 -0 -0 -1 -1 -1 -1 -1 -1 -1 -1 -1 -1 -1 -1 -0 0 1 1 1 1 1 0 -0 -1 -1 -1 -1
0 0 1 1 1 0 -0 -0 -0 -1 -1 -0 -0 -1 -2 -1 0 2 2 1 -1 -2 -3 -4 -3 -3 -2 -1 -0 -0 0 -0 -1 -1 -2 -1 -1 -0 0 -1 -1 -1 -1 -1 -2 -2 -2 -2 -2 -2 -2 -1 -1 -1 -1 -1 -0 -0 -0 -0 -0 -0 -0 -0 -0 -0 -0 -1 -1 -1 -1 -1 -1 -1 -1 -0 0 1 1 1 1 1 0 -0 -1 -1
1 1 2 1 1 0 -0 -0 -1 -1 -1 -1 0 0 -1 -1 -1 0 1 1 1 0 0 -1 -2 -3 -3 -2 -1 0 0 0 -0 -1 -1 -1 -1 -0 0 -0 -1 -1 0 -0 -1 -1 -1 -1 -1 -2 -1 -1 -1 -0 -0 0 0 0 0 0 0 -0 -0 -0 -0 -0 -0 -0 -0 -0 -1 -1 -1 -1 -1 -1 -0 0 1 1 1 1 1 1 0 -0
1 1 2 2 1 -0 -1 -0 -0 -1 -1 -1 -0 1 1 -0 -0 -0 -0 -0 -0 -0 1 1 0 -1 -2 -2 -1 -0 1 1 -0 -1 -1 -1 -0 1 1 -0 -1 -1 1 1 0 -1 -1 -1 -1 -1 -1 -1 -0 -0 0 0 0 0 0 0 -0 -0 -0 -0 -0 -0 -0 -0 -0 -0 -0 -1 -1 -1 -1 -1 -0 -0 0 0 1 1 1 1 1 1
1 1 2 1 1 -0 -1 -1 -1 -1 -2 -1 -0 0 0 0 -0 -1 -0 -1 -1 -1 0 1 1 0 -0 -1 -1 -1 1 1 -0 -1 -2 -1 -0 1 2 1 -1 -1 0 1 1 -1 -1 -0 -1 -1 -1 -1 -0 -0 0 0 0 0 0 -0 -0 -0 -0 -0 -0 -0 -0 -0 -0 -0 -0 -0 -0 -1 -1 -1 -1 -1 -1 -0 0 0 1 1 1 1
0 1 1 1 1 0 -1 -0 -0 -1 -1 -1 -0 0 1 -0 -1 -1 -0 -1 -1 -1 -0 -0 0 0 -0 -1 -1 -0 1 1 -0 -2 -2 -2 -1 0 2 2 -1 -2 -1 1 1 -0 -1 -1 -1 -1 -1 -1 -0 -0 0 0 0 0 0 0 0 0 0 -0 -0 -0 -0 -0 -0 -0 -0 -0 -0 -0 -0 -1 -1 -1 -1 -1 -1 -0 -0 0 0 1
0 1 1 1 1 0 -0 -0 -1 -1 -1 -0 0 1 1 0 0 -0 0 -1 -0 -0 -1 -0 0 1 0 -1 -2 -1 2 2 0 -2 -2 -2 -2 -1 2 2 0 -2 -2 -0 0 -0 -1 -1 -2 -1 -1 -1 -0 -0 -0 -0 -0 -0 -0 0 0 0 0 0 0 0 0 0 0 0 -0 -0 -0 -0 -0 -0 -1 -1 -1 -1 -1 -1 -1 -1 -1 -0
0 0 1 1 1 1 1 -0 -1 -2 -1 1 1 1 0 0 0 1 1 0 0 0 -1 -0 0 1 2 1 -2 -3 1 3 1 -1 -2 -3 -2 -1 1 2 1 -0 -1 -0 -0 -1 -1 -1 -2 -2 -1 -1 -1 -0 -0 -1 -1 -1 -0 -0 -0 -0 -0 0 0 0 0 0 0 0 0 0 -0 -0 -0 -0 -0 -0 -0 -1 -0 -1 -1 -1 -1 -1
-0 0 1 1 1 1 2 1 -0 -1 -0 0 1 1 0 -1 -0 0 1 0 1 1 0 0 -0 -0 2 2 0 -1 1 3 2 -0 -2 -3 -3 -2 0 2 1 -0 -1 0 0 -0 -0 -1 -2 -1 -1 -1 -1 -1 -1 -1 -1 -1 -1 -1 -1 -1 -1 -1 -1 -0 -0 -0 -0 -0 -0 -0 -0 -0 0 0 0 0 0 0 0 0 0 -0 -0 -0
-0 -0 -0 0 1 2 2 1 0 0 0 1 1 1 1 -0 -0 0 -0 0 0 1 0 1 0 -0 1 2 1 0 1 3 3 1 -2 -2 -2 -2 -0 2 1 -0 -1 -0 0 1 1 -1 -1 -1 -1 -0 -0 -0 -0 -1 -1 -1 -1 -1 -1 -1 -1 -1 -1 -1 -1 -1 -1 -1 -1 -1 -1 -0 -0 -0 0 0 0 0 0 0 0 0 0 0
-0 -1 -2 -0 1 2 2 1 1 0 1 1 1 1 0 0 0 -0 -1 0 0 0 -0 1 0 -0 1 2 1 0 1 4 3 1 -1 -2 -3 -2 -0 2 1 -0 -1 -1 0 1 2 -0 -1 -1 -1 -0 0 0 0 -0 -0 -1 -1 -1 -1 -1 -1 -1 -1 -1 -1 -1 -1 -1 -2 -1 -1 -1 -1 -1 -1 -0 -0 -0 0 0 0 0 0 0
0 -1 -2 -1 1 2 2 2 1 0 1 2 2 1 -0 0 0 -0 -1 0 0 0 -0 -0 -0 -0 1 1 0 -0 1 4 4 3 1 -1 -3 -4 -1 2 1 -0 -2 -1 -0 1 2 0 -1 -1 -1 -0 0 0 0 0 -0 -0 -0 -0 -0 -0 -0 -0 -0 -0 -1 -1 -1 -1 -1 -1 -2 -2 -2 -2 -1 -1 -1 -1 -1 -0 -0 -0 -0 -0
1 0 -1 -1 0 1 2 2 1 0 1 1 1 1 1 1 1 0 -0 1 1 1 -0 -1 -0 0 1 1 1 0 0 2 4 4 4 1 -3 -5 -1 1 1 -1 -3 -2 -0 1 0 -0 -1 -1 -1 -0 0 0 0 0 0 -0 -0 -0 -0 0 0 0 0 0 -0 -0 -0 -1 -1 -1 -1 -1 -2 -2 -2 -2 -2 -1 -1 -1 -1 -1 -1 -1
1 1 0 -0 0 1 1 1 1 1 0 1 0 0 0 1 1 1 1 2 2 1 0 0 0 -0 -0 1 1 0 -1 1 3 4 4 1 -2 -3 -2 1 1 -1 -4 -2 -0 1 0 -1 -1 -1 -0 -0 -0 0 1 0 0 -0 -0 -0 -0 0 0 0 0 0 0 0 -0 -0 -0 -1 -1 -1 -1 -1 -2 -2 -2 -2 -1 -1 -1 -1 -1 -1
1 1 0 0 0 1 1 1 1 1 1 0 0 -0 -0 -0 0 1 1 2 2 2 1 1 0 -1 -1 1 1 -0 -3 -0 2 4 4 2 -1 -2 -2 1 2 0 -3 -3 -0 2 2 -0 -1 -2 -1 -1 -0 0 1 0 0 0 -0 -0 -0 -0 0 0 0 0 0 0 0 0 -0 -0 -1 -1 -1 -1 -2 -2 -2 -2 -1 -1 -1 -1 -1 -1
1 1 0 0 0 0 1 1 1 1 1 1 1 0 -0 -0 -0 -0 0 1 2 2 2 1 -1 -2 -2 1 1 -0 -2 -1 -0 2 3 3 0 -2 -3 1 2 2 -2 -2 -1 1 2 0 -1 -1 -1 -1 -1 -0 0 0 -0 -0 -1 -1 -1 -1 -1 -0 -0 -0 0 0 0 0 0 -0 -0 -1 -1 -1 -1 -2 -2 -1 -1 -1 -1 -1 -1 -1
-0 -0 -0 -0 -0 -0 -0 0 0 1 1 1 1 0 0 -0 -0 -0 -1 -0 1 3 2 0 -1 -2 -2 -1 -0 -1 -1 -1 -1 -1 1 3 2 -1 -3 0 2 2 -0 -2 -1 1 3 1 -1 -1 -0 -1 -0 -0 -0 -0 -1 -1 -1 -1 -1 -1 -1 -1 -1 -1 -1 -0 -0 -0 -0 -0 -0 -1 -1 -1 -1 -2 -2 -1 -1 -1 -1 -1 -1 -1
-1 -1 -1 -1 -1 -1 -1 -1 -0 -0 0 0 0 -0 0 0 0 -1 -2 -1 1 3 2 1 0 -0 -1 -2 -2 -1 1 1 -1 -1 0 3 1 -1 -3 0 2 2 0 -1 -2 -1 2 1 0 -1 -0 -0 0 0 0 -0 -0 -1 -2 -2 -2 -2 -2 -2 -2 -2 -1 -1 -1 -1 -1 -1 -1 -1 -1 -1 -1 -1 -1 -1 -1 -1 -1 -1 -1 -1
-0 -0 -0 -1 -1 -1 -1 -1 -1 -1 -1 -0 -0 -0 -0 0 0 -1 -3 -1 0 2 0 0 1 1 0 -1 -2 -2 0 1 0 -0 1 2 -0 -3 -2 1 1 0 1 -0 -2 -2 -0 0 1 1 -0 -0 0 1 1 1 1 0 -1 -2 -2 -3 -3 -3 -3 -3 -2 -2 -1 -1 -1 -1 -1 -1 -1 -1 -1 -1 -1 -1 -1 -1 -1 -1 -1 -1
1 1 1 -0 -0 -0 -0 -1 -1 -1 -1 -1 -1 -1 -1 -0 0 -0 -1 -1 0 1 -0 -0 0 1 1 -0 -1 -2 -3 -1 -0 1 3 2 -1 -4 -2 0 0 -0 2 2 -1 -3 -4 -3 -1 1 1 -0 -0 0 1 2 2 1 0 -0 -1 -2 -3 -4 -4 -4 -4 -3 -3 -2 -2 -1 -1 -1 -1 -1 -1 -1 -1 -1 -1 -1 -1 -1 -1 -2
-0 0 0 -0 -0 0 0 -0 -0 -0 -0 -0 -0 0 0 0 0 -0 -0 0 0 1 0 -0 -0 -0 1 1 0 -2 -4 -3 -2 -0 2 2 -1 -3 -1 1 -1 -2 1 3 3 -1 -5 -6 -5 -2 0 -0 -1 -1 0 1 2 2 2 1 0 -1 -2 -3 -4 -4 -5 -5 -4 -3 -3 -2 -2 -1 -1 -1 -1 -1 -1 -1 -1 -0 -1 -1 -2 -2
-2 -1 -1 -1 -1 -1 -1 -1 -1 -0 -0 -0 0 1 1 1 1 1 1 1 1 1 1 0 -0 -0 0 1 1 -0 -2 -2 -2 -1 1 1 -1 -3 -1 1 -0 -2 -2 2 4 3 0 -4 -6 -6 -2 -2 -2 -2 -1 0 1 2 2 2 2 1 -1 -1 -1 -3 -4 -5 -5 -4 -4 -3 -2 -2 -1 -1 -1 -1 -1 -1 -1 -1 -0 -1 -1 -2
-1 -2 -2 -2 -2 -2 -2 -2 -2 -2 -1 -1 -1 -0 0 0 1 1 1 1 1 1 2 1 0 -0 -0 -0 -0 -0 -0 0 -0 -1 -0 0 -1 -3 -2 -0 -0 -1 -2 -0 1 3 4 1 -2 -4 -4 -4 -4 -3 -3 -2 -1 0 1 2 2 1 0 1 1 -0 -2 -3 -4 -4 -5 -4 -3 -3 -2 -1 -1 -1 -1 -1 -1 -1 -0 -0 -1 -2
-0 -1 -1 -2 -2 -2 -2 -2 -2 -2 -2 -2 -2 -2 -1 -1 -1 -1 -1 -0 -0 0 1 1 1 0 -1 -1 -2 -2 -1 -0 0 0 0 1 -1 -2 -3 -1 -1 -1 -1 -1 -1 0 2 1 1 0 -2 -5 -6 -5 -3 -2 -2 -1 0 1 1 1 -0 1 2 1 -1 -1 -2 -3 -4 -4 -4 -4 -3 -3 -2 -2 -2 -1 -1 -1 -0 0 0 -1
0 -0 -0 -1 -1 -1 -2 -2 -2 -2 -2 -2 -2 -2 -2 -2 -2 -2 -2 -1 -1 -1 -1 -0 0 0 0 -1 -2 -3 -3 -2 -1 0 1 0 -0 -1 -2 -3 -2 -1 1 -1 -1 -0 1 -1 0 1 1 -3 -6 -7 -5 -3 -1 -1 -1 -0 0 1 -0 1 2 1 0 0 -0 -1 -3 -3 -3 -4 -4 -4 -3 -3 -3 -2 -2 -1 -1 -0 0 0
1 0 -0 0 -0 -0 -1 -1 -1 -1 -1 -1 -2 -2 -2 -2 -2 -2 -2 -2 -2 -1 -1 -1 -1 -1 -0 -0 -1 -2 -3 -2 -1 -0 0 -0 -0 -0 -1 -3 -3 -1 1 -1 -1 -1 1 -1 -1 -1 2 0 -4 -7 -8 -5 -3 -1 -1 -1 -1 -0 -0 1 1 2 1 1 0 -1 -1 -2 -2 -3 -4 -4 -4 -3 -4 -3 -3 -2 -1 -1 -0 0
1 0 -0 0 0 0 -0 -1 -1 -0 -0 -1 -1 -1 -1 -1 -2 -2 -2 -2 -1 -1 -1 -1 -1 -1 -1 -1 -1 -1 -1 -1 -1 -0 0 -0 0 0 -0 -3 -3 -1 1 0 -1 -1 -0 -0 -1 -2 -1 -0 -1 -3 -7 -7 -5 -3 -3 -3 -2 -1 -2 -1 0 2 2 1 0 -0 -0 -1 -1 -2 -3 -3 -3 -3 -4 -4 -3 -2 -2 -1 -1 -0
1 0 -0 -0 0 0 0 -0 -0 -0 -0 -0 -0 -1 -1 -1 -1 -1 -1 -1 -1 -1 -1 -1 -1 -1 -1 -1 -1 -1 -1 -1 -0 0 0 0 0 0 0 -2 -3 -3 -0 1 1 0 1 1 0 -1 -2 -2 -2 -2 -3 -4 -4 -4 -5 -4 -3 -2 -2 -2 -0 1 2 2 1 0 0 0 0 -1 -2 -2 -3 -3 -3 -4 -4 -3 -2 -2 -1 -1
1 0 -0 -0 -0 0 0 0 -0 -0 0 0 -0 -0 -0 -0 -1 -1 -1 -1 -1 -1 -1 -0 -1 -1 -1 -1 -1 -1 -1 -1 -0 -0 0 0 0 1 1 -0 -2 -3 -3 -1 0 1 1 1 1 1 1 -0 -2 -3 -4 -2 -2 -2 -3 -4 -5 -5 -4 -2 -0 1 1 2 2 1 0 0 1 1 -0 -1 -1 -1 -2 -4 -4 -3 -2 -2 -3 -3
0 -0 -0 -0 -0 0 0 0 -0 -0 0 -0 -0 -0 -0 -0 -0 -0 -1 -1 -1 -0 -0 -0 0 0 -0 -0 -1 -1 -1 -1 -1 -1 -0 -0 -0 0 1 1 -0 -2 -2 -2 -1 -0 0 0 0 0 2 2 2 -0 -3 -3 -2 -1 1 -0 -4 -7 -8 -4 -2 -1 0 1 2 2 1 1 1 2 1 0 0 -0 -1 -2 -3 -3 -3 -2 -2 -3
0 -0 -1 -1 -1 -0 -0 -0 -0 0 0 -0 -0 -0 -0 0 0 0 -1 -1 -1 -1 -1 -0 -0 -0 -1 -1 -1 -0 0 -0 -1 -1 -1 -1 -1 -0 0 0 0 -0 -1 -1 -2 -2 -0 1 0 -0 -0 1 2 1 -0 -2 -2 -0 3 3 -0 -5 -7 -5 -3 -2 -1 -1 0 2 2 2 2 2 2 1 1 0 0 0 -1 -2 -3 -2 -2 -1
1 0 -0 -1 -1 -1 -1 -1 -0 -0 -0 -0 -0 -0 -0 0 0 0 -0 -1 -1 -2 -1 -0 -0 -1 -2 -3 -3 -2 0 0 -0 -1 -1 -1 -1 -0 0 0 0 0 1 0 -1 -2 -1 0 1 1 -0 1 2 1 -2 -3 -3 -0 3 3 1 -1 -4 -7 -5 -1 1 -2 -2 -0 2 2 2 2 2 2 1 0 0 1 0 -1 -2 -2 -2 -2
1 0 -0 -0 -0 -1 -1 -0 -0 -1 -1 -0 -1 -1 -1 0 1 1 0 -0 -1 -1 -1 -0 -0 -0 -1 -3 -4 -4 -1 -0 0 0 -1 -1 -1 -0 0 0 1 1 1 1 0 -2 -3 -1 1 1 -0 1 2 2 0 -3 -3 -2 -0 2 3 3 -1 -9 -8 -4 0 -1 -1 -0 1 2 2 2 2 2 1 1 0 0 -0 -0 -1 -1 -1 -1
0 0 0 -0 -0 -0 -0 -0 -0 -0 -0 -0 -1 -1 -1 -1 0 0 0 -0 -1 -1 -0 -0 -0 -0 -1 -3 -4 -4 -3 -2 -1 -0 -0 -1 -0 0 0 0 -0 -0 1 1 1 -1 -3 -3 -2 -2 -0 1 2 1 -1 -1 -2 -2 -2 -1 2 4 2 -3 -5 -4 -3 -3 -2 -1 1 2 2 2 2 2 2 1 1 0 -0 -1 -1 -0 -0 -0
1 0 0 0 0 0 1 -0 -0 0 0 -1 -1 -2 -2 -1 -1 -0 0 -0 -0 -0 -0 0 1 0 -2 -4 -4 -3 -3 -3 -2 -2 -2 -2 -1 -1 -0 -0 -1 -2 -2 -1 -1 0 1 -1 -3 -4 -3 -0 1 1 -0 -1 -1 -1 -2 -2 -0 0 -1 -1 -1 -1 -1 -3 -3 -1 -0 2 3 3 2 2 2 1 1 1 0 -0 -1 -1 -0 0
1 1 1 1 1 1 1 1 1 1 0 -0 -1 -1 -1 -1 -1 -0 -0 0 0 0 -1 0 1 2 -1 -3 -3 -3 -2 -3 -3 -3 -3 -3 -3 -2 -2 -1 -1 -1 -2 -2 -2 -1 1 1 0 -1 -2 -2 -2 -2 -2 0 1 0 -2 -2 -1 -1 -3 -3 -2 -1 -0 -0 -1 -1 -1 1 3 3 3 2 2 1 1 1 1 0 -1 -1 -0 -0
0 0 0 0 1 1 1 1 1 1 1 -0 -1 -1 -1 -0 -0 -0 -1 -0 0 0 -1 -1 0 1 -0 -1 -2 -1 -1 -2 -3 -3 -3 -3 -3 -3 -3 -3 -3 -2 -1 -1 -1 -1 -1 0 1 1 1 -0 -2 -4 -5 -2 1 2 0 -1 -1 -1 -2 -4 -4 -2 -1 -0 -0 -1 -1 1 1 2 2 2 2 2 1 0 0 0 -0 -0 -0 -0
1 1 0 0 1 1 0 0 0 1 0 -0 -1 -1 -0 0 1 1 -0 -1 -1 -0 -0 -1 -1 -1 -1 -1 -1 -0 0 0 -1 -2 -2 -3 -3 -3 -3 -4 -4 -4 -3 -1 -0 1 1 1 1 1 1 1 0 -2 -4 -3 -1 0 0 -0 -1 -1 -2 -3 -4 -3 -1 -1 -1 -1 0 1 1 1 1 2 2 2 1 -1 -1 -1 -1 -0 -0 -0
1 1 1 1 1 0 -0 -1 -0 -0 -0 -1 -1 -1 -1 -0 1 2 1 -0 -1 -0 -0 -0 -0 -1 -1 -1 -1 -1 0 0 -0 -1 -2 -2 -2 -2 -2 -3 -3 -3 -4 -3 -2 -0 1 1 1 0 1 1 1 -0 -2 -1 -1 -1 -1 -1 -1 -1 -1 -3 -3 -3 -1 -1 -1 -1 -0 0 0 1 2 3 3 2 2 0 -2 -3 -3 -2 -0 0
1 1 1 1 1 0 -1 -1 -1 -1 -1 -1 -1 -1 -1 -1 -0 0 1 0 -0 -0 -0 -0 0 0 -0 -1 -1 -1 0 -0 -1 -2 -2 -2 -1 -0 -1 -2 -1 -1 -2 -2 -1 -0 1 1 -1 -3 -4 -1 1 2 2 -0 -1 -1 -1 -2 -2 -1 -1 -2 -2 -2 -1 -1 -1 -1 -0 -1 -1 -0 2 2 3 3 3 2 -1 -3 -4 -3 -2 -0
1 1 1 0 0 -0 -1 -1 -1 -0 -1 -0 -0 -0 -0 -1 -1 -1 -1 -0 -0 -0 -0 -0 0 1 0 -1 -1 -1 -0 -0 -1 -2 -3 -3 -2 -1 -1 -1 -0 1 1 0 0 1 4 4 1 -3 -9 -9 -4 2 5 2 -0 -1 -2 -4 -4 -2 -1 -2 -2 -2 -0 -0 -0 -0 -0 -1 -1 -1 0 2 2 3 4 3 0 -3 -5 -4 -3 -1
Height
5716 5716 5715 5714 5714 5713 5712 5712 5711 5710 5709 5708 5707 5707 5706 5705 5704 5703 5703 5702 5701 5700 5699 5698 5697 5696 5696 5695 5694 5693 5692 5691 5690 5689 5689 5688 5687 5686 5685 5684 5683 5683 5682 5681 5680 5679 5678 5677 5676 5675 5674 5673 5673 5672 5671 5670 5669 5668 5668 5667 5666 5665 5663 5663 5662 5660 5659 5658 5658 5657 5656 5655 5654 5653 5652 5652 5651 5650 5649 5649 5648 5648 5648 5648 5648 5648
5714 5713 5713 5712 5711 5710 5710 5709 5708 5708 5707 5706 5705 5704 5703 5703 5702 5701 5700 5699 5699 5698 5697 5696 5695 5694 5693 5692 5692 5691 5690 5689 5688 5687 5686 5686 5685 5684 5683 5682 5681 5680 5679 5678 5678 5677 5676 5675 5674 5673 5672 5671 5671 5670 5669 5668 5668 5667 5666 5665 5664 5663 5662 5661 5660 5659 5658 5657 5656 5656 5655 5654 5653 5652 5651 5651 5650 5649 5649 5648 5648 5647 5647 5647 5647 5647
5712 5711 5710 5709 5709 5708 5707 5706 5706 5705 5704 5703 5703 5702 5701 5700 5699 5699 5698 5697 5696 5696 5695 5694 5693 5692 5691 5690 5689 5688 5688 5687 5686 5685 5684 5683 5683 5682 5681 5680 5679 5678 5677 5676 5675 5674 5673 5673 5672 5671 5670 5669 5668 5668 5667 5666 5666 5665 5664 5663 5662 5661 5660 5659 5658 5658 5657 5656 5655 5654 5653 5653 5652 5651 5651 5650 5649 5648 5648 5647 5647 5647 5646 5646 5646 5646
5709 5708 5708 5707 5706 5706 5705 5704 5703 5702 5702 5701 5700 5699 5699 5698 5697 5696 5696 5695 5694 5693 5692 5692 5690 5689 5688 5688 5687 5686 5685 5685 5684 5683 5682 5681 5680 5679 5678 5678 5677 5676 5675 5674 5673 5672 5671 5670 5670 5669 5668 5667 5667 5666 5665 5664 5664 5663 5662 5661 5660 5660 5659 5658 5657 5656 5655 5654 5653 5653 5652 5652 5651 5650 5650 5649 5648 5648 5647 5647 5646 5646 5646 5645 5645 5645
5707 5706 5705 5704 5704 5703 5702 5702 5701 5700 5699 5698 5698 5697 5696 5695 5695 5694 5693 5693 5692 5691 5690 5689 5688 5687 5686 5685 5685 5684 5683 5683 5682 5681 5680 5679 5678 5677 5677 5676 5675 5674 5673 5672 5671 5670 5669 5668 5668 5667 5666 5665 5664 5664 5663 5662 5662 5661 5660 5659 5659 5658 5657 5656 5655 5654 5653 5653 5652 5651 5651 5650 5649 5649 5648 5648 5648 5647 5647 5646 5646 5645 5645 5645 5644 5644
5704 5703 5703 5702 5701 5701 5700 5699 5698 5698 5697 5696 5695 5695 5694 5693 5692 5691 5691 5690 5689 5688 5688 5687 5686 5685 5684 5683 5682 5682 5681 5680 5679 5679 5678 5677 5676 5675 5674 5673 5673 5672 5671 5670 5669 5668 5667 5666 5665 5664 5664 5663 5662 5662 5661 5660 5659 5659 5658 5658 5657 5656 5655 5654 5654 5653 5652 5651 5651 5650 5649 5648 5648 5648 5647 5647 5647 5646 5646 5645 5645 5644 5644 5644 5643 5643
5702 5701 5700 5699 5699 5698 5698 5697 5696 5695 5695 5694 5693 5692 5691 5691 5690 5689 5688 5687 5687 5686 5685 5684 5683 5683 5682 5681 5680 5679 5678 5678 5677 5676 5675 5674 5673 5673 5672 5671 5670 5669 5668 5667 5666 5665 5664 5663 5663 5662 5661 5660 5660 5659 5658 5658 5657 5657 5656 5655 5655 5654 5653 5653 5652 5651 5650 5650 5649 5648 5648 5647 5647 5646 5646 5646 5645 5645 5645 5644 5644 5644 5643 5643 5643 5642
5699 5698 5698 5697 5697 5696 5695 5694 5693 5693 5692 5691 5691 5690 5689 5688 5687 5686 5686 5685 5684 5683 5682 5682 5681 5680 5679 5678 5677 5676 5676 5675 5674 5673 5673 5672 5671 5670 5669 5668 5667 5666 5665 5664 5663 5663 5662 5661 5660 5659 5658 5658 5657 5657 5656 5655 5655 5654 5653 5653 5653 5652 5651 5651 5650 5649 5648 5648 5647 5647 5646 5646 5645 5645 5644 5644 5644 5643 5643 5643 5643 5643 5642 5642 5642 5641
5697 5696 5696 5695 5694 5694 5693 5692 5691 5690 5690 5689 5688 5687 5686 5686 5685 5684 5683 5682 5682 5681 5680 5679 5678 5678 5677 5676 5675 5674 5673 5673 5672 5671 5670 5668 5668 5667 5666 5665 5664 5663 5663 5662 5661 5660 5659 5658 5657 5657 5656 5655 5654 5654 5653 5653 5652 5652 5651 5651 5650 5650 5649 5648 5648 5647 5647 5646 5645 5645 5644 5644 5643 5643 5643 5642 5642 5642 5642 5642 5641 5641 5641 5641 5640 5640
5694 5693 5693 5693 5692 5691 5690 5689 5689 5688 5687 5686 5685 5684 5684 5683 5682 5682 5681 5680 5679 5678 5677 5677 5676 5675 5674 5674 5673 5672 5671 5670 5669 5668 5667 5666 5665 5664 5663 5662 5661 5661 5660 5659 5658 5657 5656 5656 5655 5654 5653 5653 5652 5651 5651 5650 5650 5649 5649 5648 5648 5647 5647 5646 5645 5645 5644 5644 5643 5643 5642 5642 5641 5641 5641 5640 5640 5640 5640 5639 5639 5639 5639 5639 5639 5638
5692 5691 5691 5690 5689 5688 5688 5687 5686 5685 5684 5683 5683 5682 5681 5680 5680 5679 5678 5678 5677 5676 5674 5674 5673 5673 5672 5671 5670 5669 5668 5667 5666 5666 5665 5664 5663 5662 5661 5660 5659 5658 5657 5656 5655 5655 5654 5653 5652 5652 5651 5650 5649 5649 5648 5648 5647 5647 5646 5646 5645 5645 5644 5644 5643 5643 5642 5642 5641 5640 5640 5639 5639 5639 5638 5638 5638 5638 5638 5637 5637 5637 5637 5637 5637 5637
5689 5688 5688 5687 5687 5686 5685 5684 5683 5682 5682 5681 5680 5679 5678 5678 5677 5677 5676 5675 5674 5673 5672 5671 5670 5670 5669 5668 5668 5667 5666 5665 5664 5663 5662 5661 5660 5659 5658 5657 5656 5655 5655 5654 5653 5652 5651 5650 5650 5649 5648 5648 5647 5646 5646 5645 5645 5644 5644 5643 5643 5642 5642 5641 5641 5640 5640 5639 5639 5638 5638 5637 5637 5637 5636 5636 5636 5635 5635 5635 5635 5635 5635 5635 5635 5635
5686 5686 5685 5685 5684 5683 5682 5682 5681 5680 5679 5678 5678 5677 5676 5675 5674 5674 5673 5673 5672 5671 5670 5669 5668 5667 5667 5666 5665 5664 5663 5662 5661 5661 5660 5659 5658 5657 5656 5655 5654 5653 5652 5651 5650 5650 5649 5648 5647 5647 5646 5645 5645 5644 5643 5643 5642 5642 5641 5641 5640 5640 5639 5639 5638 5638 5637 5637 5636 5636 5635 5635 5634 5634 5634 5633 5633 5633 5633 5633 5632 5632 5632 5632 5632 5632
5684 5683 5683 5682 5681 5680 5679 5679 5678 5677 5676 5676 5675 5674 5673 5673 5672 5671 5671 5670 5669 5668 5668 5667 5666 5665 5664 5663 5662 5661 5661 5660 5659 5658 5657 5656 5655 5654 5653 5652 5651 5651 5650 5649 5648 5647 5646 5645 5645 5644 5643 5643 5642 5642 5641 5640 5640 5639 5639 5638 5638 5637 5637 5636 5636 5635 5635 5634 5634 5633 5633 5632 5632 5632 5631 5631 5631 5630 5630 5630 5630 5629 5629 5629 5629 5629
5681 5680 5680 5679 5678 5678 5677 5676 5675 5674 5673 5673 5672 5672 5671 5670 5669 5669 5668 5667 5667 5666 5665 5664 5663 5663 5662 5660 5659 5658 5658 5657 5656 5655 5654 5653 5653 5652 5651 5649 5648 5648 5647 5646 5645 5644 5644 5643 5642 5641 5641 5640 5639 5639 5638 5638 5637 5637 5636 5635 5635 5634 5634 5633 5633 5632 5632 5631 5631 5630 5630 5630 5629 5629 5628 5628 5628 5628 5627 5627 5627 5627 5627 5627 5627 5627
5678 5678 5677 5676 5676 5675 5674 5673 5673 5672 5671 5670 5669 5669 5668 5668 5667 5666 5666 5665 5664 5663 5663 5662 5661 5660 5659 5658 5657 5656 5655 5654 5653 5653 5652 5651 5650 5649 5648 5647 5646 5645 5644 5643 5643 5642 5641 5640 5639 5638 5638 5637 5637 5636 5636 5635 5634 5634 5633 5633 5632 5632 5631 5631 5630 5629 5629 5628 5628 5628 5627 5627 5626 5626 5626 5625 5625 5625 5624 5624 5624 5624 5624 5623 5623 5623
5676 5675 5674 5673 5673 5672 5671 5671 5670 5669 5668 5668 5667 5666 5666 5665 5664 5663 5663 5662 5661 5660 5659 5659 5658 5657 5656 5655 5655 5654 5653 5651 5650 5649 5649 5648 5647 5647 5645 5644 5643 5642 5641 5641 5640 5639 5638 5637 5636 5636 5635 5634 5634 5633 5633 5632 5632 5631 5630 5630 5629 5629 5628 5628 5627 5627 5626 5626 5625 5625 5624 5624 5623 5623 5623 5622 5622 5622 5621 5621 5621 5621 5620 5620 5620 5620
5673 5672 5671 5671 5670 5669 5669 5668 5667 5666 5666 5665 5664 5663 5663 5662 5662 5661 5660 5659 5658 5658 5657 5656 5655 5655 5654 5653 5652 5651 5650 5649 5648 5647 5646 5645 5644 5643 5643 5641 5640 5639 5638 5638 5637 5636 5635 5634 5633 5633 5632 5632 5631 5630 5630 5629 5628 5628 5627 5627 5626 5626 5625 5625 5624 5624 5623 5623 5622 5622 5621 5621 5620 5620 5619 5619 5619 5618 5618 5618 5618 5617 5617 5617 5617 5617
5670 5669 5669 5668 5667 5667 5666 5665 5664 5663 5663 5662 5662 5661 5660 5659 5659 5658 5658 5657 5656 5655 5654 5653 5652 5652 5651 5650 5649 5648 5647 5646 5645 5644 5643 5643 5642 5641 5640 5638 5637 5636 5636 5635 5634 5633 5632 5631 5630 5630 5629 5628 5628 5627 5627 5626 5625 5625 5624 5624 5623 5623 5622 5622 5621 5620 5620 5619 5619 5618 5618 5618 5617 5617 5616 5616 5615 5615 5615 5614 5614 5614 5614 5613 5613 5613
5667 5667 5666 5665 5665 5664 5663 5663 5662 5661 5660 5659 5659 5658 5658 5657 5656 5655 5655 5654 5653 5652 5651 5650 5649 5649 5648 5648 5647 5645 5644 5643 5642 5641 5640 5639 5638 5638 5637 5636 5634 5633 5633 5632 5631 5630 5629 5628 5627 5627 5626 5626 5625 5624 5623 5623 5622 5622 5621 5620 5620 5619 5619 5618 5618 5617 5617 5616 5615 5615 5614 5614 5613 5613 5613 5612 5612 5612 5611 5611 5611 5610 5610 5610 5610 5609
5664 5664 5663 5663 5662 5661 5661 5660 5659 5658 5657 5656 5656 5655 5655 5654 5653 5652 5652 5651 5650 5649 5648 5648 5647 5646 5645 5645 5643 5643 5642 5640 5639 5638 5637 5637 5636 5635 5634 5633 5631 5630 5630 5629 5628 5627 5626 5625 5624 5623 5623 5623 5622 5621 5620 5620 5619 5618 5618 5617 5617 5616 5615 5615 5614 5614 5613 5613 5612 5612 5611 5610 5610 5609 5609 5609 5608 5608 5608 5607 5607 5607 5606 5606 5606 5605
5662 5661 5660 5659 5659 5658 5658 5657 5656 5655 5654 5653 5653 5652 5652 5651 5650 5649 5648 5648 5647 5646 5645 5644 5643 5643 5642 5641 5640 5639 5638 5638 5636 5635 5634 5633 5632 5632 5631 5629 5628 5627 5627 5626 5625 5624 5623 5622 5621 5620 5620 5619 5619 5618 5617 5617 5616 5615 5615 5614 5613 5613 5612 5612 5611 5610 5610 5609 5608 5608 5608 5607 5606 5606 5605 5605 5604 5604 5604 5603 5603 5603 5602 5602 5602 5601
5658 5658 5657 5657 5656 5655 5654 5654 5653 5652 5651 5650 5650 5649 5648 5648 5647 5646 5645 5644 5644 5643 5642 5641 5640 5639 5638 5638 5637 5636 5635 5634 5633 5632 5631 5630 5629 5628 5628 5626 5625 5624 5623 5623 5622 5621 5620 5619 5618 5617 5617 5616 5615 5615 5614 5613 5613 5612 5611 5611 5610 5609 5609 5608 5608 5607 5606 5606 5605 5604 5604 5603 5603 5602 5602 5601 5601 5600 5600 5599 5599 5598 5598 5598 5597 5597
5656 5655 5654 5653 5653 5652 5652 5651 5650 5649 5648 5647 5647 5646 5645 5644 5643 5643 5642 5641 5640 5639 5638 5638 5637 5636 5635 5635 5633 5632 5632 5631 5630 5629 5628 5627 5626 5625 5624 5623 5622 5621 5620 5619 5618 5618 5617 5616 5615 5614 5613 5613 5612 5612 5611 5610 5609 5608 5608 5607 5607 5606 5605 5605 5604 5603 5603 5602 5602 5601 5600 5600 5599 5598 5598 5597 5597 5596 5596 5595 5595 5594 5594 5593 5593 5593
5653 5652 5651 5651 5650 5649 5648 5648 5647 5646 5645 5644 5643 5643 5642 5641 5640 5639 5638 5638 5637 5636 5635 5634 5633 5633 5632 5632 5630 5629 5628 5627 5627 5625 5624 5623 5622 5622 5621 5620 5619 5618 5617 5616 5615 5614 5613 5612 5612 5611 5610 5609 5609 5608 5607 5607 5606 5605 5604 5604 5603 5603 5602 5601 5600 5600 5599 5598 5598 5597 5597 5596 5595 5595 5594 5593 5593 5592 5592 5591 5591 5590 5590 5589 5588 5588
5650 5649 5648 5648 5647 5646 5645 5645 5644 5643 5642 5641 5640 5639 5638 5638 5637 5636 5635 5635 5634 5633 5632 5631 5630 5629 5629 5628 5627 5626 5625 5624 5623 5622 5621 5620 5619 5618 5618 5617 5616 5614 5613 5613 5612 5611 5610 5609 5608 5608 5607 5606 5605 5605 5604 5603 5602 5602 5601 5600 5599 5598 5598 5597 5597 5596 5595 5595 5594 5593 5593 5592 5591 5591 5590 5589 5588 5588 5588 5587 5586 5586 5585 5584 5584 5583
5647 5646 5645 5644 5643 5643 5642 5641 5641 5640 5639 5638 5637 5636 5635 5634 5633 5633 5633 5632 5631 5630 5628 5627 5626 5625 5625 5624 5623 5623 5622 5620 5619 5618 5618 5617 5616 5615 5614 5613 5612 5611 5610 5609 5608 5608 5607 5606 5605 5604 5603 5603 5602 5601 5600 5599 5599 5598 5597 5596 5595 5595 5594 5593 5593 5592 5591 5591 5590 5589 5588 5588 5587 5586 5586 5585 5584 5583 5583 5582 5582 5581 5580 5580 5579 5578
5643 5643 5642 5641 5640 5640 5639 5638 5638 5637 5636 5635 5634 5633 5632 5631 5630 5629 5629 5628 5628 5626 5625 5624 5623 5622 5621 5620 5620 5619 5619 5618 5616 5615 5614 5613 5612 5611 5611 5610 5609 5608 5607 5606 5605 5604 5603 5603 5601 5601 5600 5599 5598 5598 5597 5596 5595 5594 5593 5592 5591 5591 5590 5589 5588 5588 5587 5586 5586 5585 5584 5583 5583 5582 5581 5580 5580 5579 5578 5578 5577 5576 5575 5575 5574 5573
5641 5640 5639 5638 5637 5637 5636 5635 5634 5633 5633 5632 5631 5630 5629 5628 5627 5626 5625 5625 5624 5623 5622 5621 5620 5619 5618 5617 5617 5616 5615 5614 5613 5612 5610 5610 5609 5608 5608 5606 5605 5604 5603 5602 5601 5601 5600 5599 5598 5597 5596 5596 5595 5594 5593 5593 5592 5591 5589 5588 5588 5587 5586 5585 5584 5583 5583 5582 5581 5580 5580 5579 5578 5577 5576 5576 5575 5574 5573 5573 5572 5571 5570 5569 5569 5568
5638 5637 5636 5635 5634 5633 5633 5632 5631 5630 5629 5628 5628 5627 5626 5625 5624 5623 5622 5621 5620 5620 5618 5618 5617 5616 5615 5614 5613 5612 5612 5611 5610 5608 5607 5606 5605 5605 5604 5603 5602 5601 5600 5599 5598 5597 5596 5596 5595 5593 5593 5592 5591 5591 5590 5589 5588 5587 5586 5585 5583 5583 5582 5580 5579 5579 5578 5577 5577 5576 5575 5574 5573 5573 5572 5571 5570 5569 5568 5568 5567 5566 5565 5564 5563 5563
5635 5634 5633 5632 5631 5631 5630 5629 5628 5627 5626 5625 5624 5623 5623 5622 5621 5620 5619 5618 5617 5616 5615 5614 5613 5613 5612 5610 5609 5608 5608 5608 5606 5605 5604 5603 5602 5601 5601 5600 5598 5598 5597 5596 5594 5593 5592 5592 5591 5590 5589 5588 5587 5587 5586 5585 5584 5583 5582 5581 5580 5578 5577 5576 5575 5574 5573 5572 5572 5571 5570 5569 5568 5568 5567 5566 5565 5564 5563 5563 5562 5561 5560 5559 5558 5558
5631 5631 5630 5629 5628 5627 5626 5625 5625 5624 5623 5622 5621 5621 5620 5618 5618 5617 5616 5615 5614 5613 5612 5611 5610 5609 5608 5607 5606 5605 5604 5604 5603 5601 5600 5599 5598 5598 5597 5596 5595 5594 5593 5592 5591 5590 5588 5587 5587 5586 5585 5584 5583 5583 5582 5581 5580 5579 5578 5577 5576 5574 5573 5572 5571 5569 5568 5568 5567 5566 5565 5564 5563 5563 5562 5561 5560 5559 5558 5558 5557 5556 5555 5554 5553 5552
5628 5627 5626 5625 5624 5624 5623 5622 5621 5620 5620 5619 5618 5617 5616 5615 5614 5613 5612 5611 5610 5609 5608 5608 5607 5606 5605 5604 5603 5602 5601 5600 5599 5598 5597 5596 5595 5594 5593 5593 5592 5591 5590 5589 5588 5587 5585 5584 5583 5582 5581 5580 5579 5578 5578 5577 5576 5575 5574 5573 5572 5570 5569 5568 5567 5565 5564 5563 5562 5561 5560 5559 5558 5558 5557 5556 5555 5554 5553 5552 5552 5551 5550 5548 5548 5547
5625 5624 5623 5622 5621 5620 5619 5619 5618 5617 5616 5615 5614 5613 5613 5612 5611 5610 5609 5608 5607 5606 5605 5604 5603 5602 5601 5600 5599 5599 5598 5597 5596 5594 5593 5592 5591 5591 5590 5589 5588 5587 5586 5585 5584 5583 5582 5581 5580 5578 5577 5576 5575 5574 5573 5573 5572 5571 5570 5568 5567 5566 5565 5563 5562 5561 5559 5558 5557 5556 5555 5554 5553 5552 5551 5550 5550 5549 5548 5547 5546 5545 5544 5543 5542 5541
5622 5621 5620 5619 5618 5617 5616 5616 5615 5614 5613 5612 5611 5610 5609 5608 5607 5606 5605 5604 5603 5603 5602 5601 5600 5599 5598 5597 5596 5595 5595 5594 5593 5591 5590 5589 5588 5587 5586 5585 5585 5584 5583 5581 5581 5579 5578 5577 5576 5575 5573 5572 5570 5570 5569 5568 5567 5566 5565 5564 5563 5561 5560 5559 5558 5556 5555 5553 5552 5551 5550 5549 5548 5547 5546 5545 5544 5543 5542 5542 5541 5540 5539 5538 5537 5536
5619 5618 5617 5616 5615 5614 5613 5613 5612 5611 5610 5609 5608 5607 5606 5605 5604 5603 5602 5601 5600 5599 5598 5597 5596 5595 5594 5593 5592 5592 5591 5590 5589 5588 5587 5585 5584 5583 5583 5582 5581 5580 5579 5578 5577 5576 5574 5573 5572 5571 5570 5568 5566 5565 5564 5563 5563 5561 5560 5559 5558 5557 5556 5554 5553 5552 5550 5549 5548 5546 5545 5544 5543 5541 5540 5539 5538 5538 5537 5536 5535 5534 5533 5532 5531 5530
5616 5615 5614 5613 5612 5611 5610 5609 5608 5608 5606 5605 5604 5603 5602 5601 5600 5599 5598 5598 5597 5596 5595 5594 5593 5592 5591 5590 5589 5588 5587 5586 5585 5584 5583 5582 5581 5580 5579 5578 5577 5576 5575 5574 5573 5572 5570 5569 5568 5566 5565 5564 5562 5561 5559 5558 5558 5557 5555 5554 5553 5552 5551 5550 5549 5547 5546 5544 5543 5541 5540 5539 5538 5536 5535 5534 5533 5532 5531 5530 5529 5528 5527 5526 5526 5525
5613 5612 5611 5610 5609 5608 5607 5606 5605 5604 5603 5602 5601 5600 5599 5598 5597 5596 5595 5594 5593 5593 5592 5591 5590 5589 5588 5587 5586 5585 5584 5583 5582 5581 5580 5578 5577 5576 5575 5574 5573 5572 5571 5570 5569 5568 5566 5565 5563 5562 5561 5559 5558 5557 5555 5554 5553 5552 5550 5549 5548 5547 5546 5545 5544 5543 5541 5539 5538 5537 5535 5534 5533 5531 5530 5528 5527 5526 5525 5524 5523 5522 5521 5520 5520 5519
5609 5608 5608 5607 5606 5605 5603 5603 5602 5601 5600 5598 5598 5597 5596 5595 5594 5593 5592 5591 5590 5589 5588 5588 5586 5585 5584 5583 5582 5581 5580 5579 5578 5577 5576 5575 5574 5573 5571 5570 5569 5568 5567 5566 5565 5563 5562 5561 5559 5558 5557 5555 5553 5552 5551 5550 5548 5547 5545 5544 5543 5542 5541 5540 5538 5537 5536 5535 5533 5532 5530 5529 5528 5526 5524 5523 5522 5521 5519 5518 5517 5516 5515 5515 5514 5513
5606 5605 5604 5603 5602 5601 5600 5599 5598 5597 5596 5595 5594 5593 5593 5592 5591 5590 5589 5588 5587 5586 5585 5584 5583 5582 5581 5580 5579 5578 5577 5576 5575 5573 5573 5571 5570 5569 5568 5566 5565 5564 5563 5562 5560 5559 5558 5557 5555 5554 5553 5551 5549 5548 5546 5545 5544 5543 5541 5539 5537 5536 5535 5534 5533 5532 5531 5529 5528 5527 5525 5524 5523 5521 5519 5518 5517 5515 5514 5513 5512 5511 5510 5509 5508 5508
5603 5602 5601 5600 5599 5598 5597 5596 5595 5594 5593 5592 5591 5590 5589 5588 5588 5586 5585 5585 5584 5583 5582 5581 5580 5578 5578 5577 5575 5574 5573 5572 5571 5570 5568 5568 5566 5565 5564 5563 5561 5560 5559 5557 5556 5555 5554 5553 5551 5550 5548 5547 5545 5543 5542 5540 5539 5538 5537 5535 5533 5531 5529 5528 5527 5526 5525 5524 5523 5521 5520 5518 5517 5516 5514 5513 5512 5510 5509 5508 5507 5506 5505 5504 5503 5503
5600 5599 5598 5597 5595 5594 5593 5592 5591 5590 5589 5589 5588 5587 5586 5585 5584 5583 5582 5581 5580 5579 5578 5578 5576 5575 5574 5573 5572 5571 5570 5568 5567 5566 5565 5563 5563 5561 5560 5559 5558 5556 5555 5553 5552 5551 5550 5548 5547 5545 5544 5543 5541 5538 5537 5535 5534 5533 5532 5530 5528 5525 5523 5522 5521 5520 5519 5518 5517 5516 5514 5513 5512 5510 5509 5508 5507 5505 5504 5503 5502 5501 5500 5499 5498 5498
5596 5595 5594 5593 5592 5591 5590 5589 5588 5587 5586 5586 5585 5584 5583 5582 5581 5580 5579 5578 5577 5576 5575 5574 5573 5572 5570 5569 5568 5567 5566 5565 5563 5562 5561 5560 5558 5558 5556 5555 5554 5553 5551 5550 5548 5547 5545 5544 5543 5541 5539 5538 5536 5534 5532 5530 5529 5528 5526 5525 5523 5521 5518 5516 5515 5514 5513 5512 5511 5510 5509 5508 5507 5505 5504 5503 5502 5500 5499 5499 5498 5497 5496 5495 5494 5493
5593 5592 5591 5590 5589 5588 5587 5586 5585 5584 5583 5583 5581 5580 5579 5579 5578 5577 5576 5575 5574 5573 5572 5570 5569 5568 5567 5565 5564 5563 5562 5561 5559 5558 5557 5556 5555 5554 5553 5551 5550 5548 5547 5546 5544 5542 5541 5539 5538 5536 5534 5533 5531 5529 5527 5525 5524 5522 5520 5519 5518 5516 5513 5511 5509 5508 5507 5506 5505 5504 5503 5502 5501 5500 5499 5498 5497 5496 5495 5494 5493 5493 5492 5491 5490 5489
5589 5588 5588 5587 5586 5585 5584 5583 5582 5581 5580 5579 5578 5577 5576 5575 5574 5573 5573 5571 5570 5569 5568 5567 5565 5564 5563 5561 5560 5559 5558 5557 5555 5554 5553 5552 5551 5550 5548 5547 5546 5544 5543 5541 5539 5538 5536 5534 5533 5531 5529 5528 5526 5524 5522 5520 5518 5517 5515 5513 5512 5510 5508 5506 5504 5503 5502 5500 5499 5498 5498 5497 5496 5495 5494 5493 5493 5492 5491 5490 5489 5488 5487 5487 5486 5485
5586 5585 5584 5583 5583 5582 5581 5580 5579 5578 5577 5576 5575 5574 5573 5572 5571 5570 5569 5568 5567 5565 5564 5563 5562 5560 5558 5557 5556 5555 5554 5553 5552 5551 5549 5548 5547 5546 5545 5543 5542 5540 5538 5537 5535 5533 5531 5529 5528 5525 5524 5522 5520 5519 5517 5516 5513 5512 5509 5508 5506 5504 5502 5500 5499 5498 5497 5495 5494 5493 5493 5492 5491 5491 5490 5489 5488 5487 5486 5485 5485 5484 5483 5482 5482 5481
5583 5582 5581 5581 5580 5579 5578 5577 5576 5575 5573 5573 5572 5570 5569 5568 5567 5566 5565 5564 5563 5562 5560 5559 5558 5557 5555 5553 5552 5551 5550 5549 5548 5547 5546 5544 5543 5542 5540 5539 5538 5536 5534 5532 5530 5528 5526 5524 5523 5521 5519 5517 5515 5513 5511 5510 5508 5507 5504 5503 5501 5499 5497 5495 5494 5493 5491 5490 5489 5488 5488 5487 5487 5486 5486 5485 5484 5483 5482 5481 5480 5479 5479 5478 5477 5477
5580 5579 5578 5578 5577 5576 5574 5573 5572 5571 5570 5569 5568 5567 5566 5565 5564 5563 5562 5560 5559 5558 5557 5555 5554 5553 5551 5550 5549 5548 5547 5545 5544 5543 5542 5540 5539 5538 5536 5534 5533 5531 5530 5528 5526 5524 5522 5520 5518 5515 5513 5512 5510 5508 5506 5505 5503 5501 5499 5497 5495 5494 5492 5490 5489 5488 5487 5486 5485 5484 5483 5483 5482 5482 5481 5481 5480 5479 5478 5477 5476 5475 5474 5474 5473 5473
5577 5576 5575 5574 5573 5572 5571 5570 5569 5568 5567 5566 5564 5563 5562 5561 5560 5559 5558 5556 5555 5554 5553 5552 5550 5549 5548 5546 5545 5544 5543 5542 5541 5539 5538 5537 5535 5533 5532 5530 5528 5527 5525 5523 5521 5519 5517 5515 5513 5510 5508 5507 5505 5503 5501 5500 5498 5496 5494 5492 5491 5489 5488 5486 5484 5483 5482 5481 5480 5480 5479 5478 5478 5477 5477 5477 5476 5476 5475 5473 5472 5471 5470 5469 5469 5468
5573 5573 5572 5571 5569 5568 5568 5566 5565 5564 5563 5562 5561 5560 5558 5558 5556 5555 5554 5553 5551 5550 5549 5548 5547 5545 5544 5543 5542 5541 5540 5538 5537 5536 5534 5533 5531 5530 5528 5526 5525 5523 5521 5519 5517 5515 5513 5510 5508 5505 5503 5502 5500 5498 5497 5495 5493 5491 5489 5487 5486 5484 5483 5482 5480 5479 5478 5477 5476 5476 5475 5474 5473 5473 5473 5473 5472 5472 5471 5470 5468 5467 5465 5465 5464 5464
5570 5569 5568 5567 5566 5565 5564 5563 5562 5561 5559 5558 5558 5556 5555 5554 5553 5551 5550 5549 5548 5547 5545 5544 5543 5542 5540 5539 5538 5537 5536 5535 5533 5532 5530 5529 5528 5526 5524 5522 5521 5519 5517 5515 5513 5511 5509 5507 5503 5500 5497 5496 5495 5494 5492 5490 5488 5487 5485 5483 5482 5480 5479 5478 5476 5475 5474 5473 5473 5472 5471 5470 5469 5469 5469 5468 5468 5468 5467 5466 5464 5463 5461 5460 5460 5459